Regional Weather Roundup
Issued by NWS

Home | Current Version | Previous Version | Graphics & Text | Print | Product List | Glossary On
Versions: 1 2 3 4 5 6 7 8 9 10 11 12 13 14 15 16 17 18 19 20 21 22 23 24 25 26 27 28 29 30 31 32 33 34 35 36 37 38 39 40 41 42 43 44 45 46 47 48 49 50
000
ASUS43 KLMK 042210
RWRKY
KENTUCKY REGIONAL WEATHER ROUNDUP
NATIONAL WEATHER SERVICE LOUISVILLE KY
600 PM EDT FRI SEP 04 2015

NOTE "FAIR" INDICATES FEW OR NO CLOUDS BELOW 12,000 FEET
WITH NO SIGNIFICANT WEATHER AND/OR OBSTRUCTIONS TO VISIBILITY.

KYZ001>023-026-027-061>063-070>075-042300-
WESTERN AND SOUTH CENTRAL KENTUCKY

CITY           SKY/WX    TMP DP  RH WIND       PRES   REMARKS
PADUCAH        MOSUNNY   93  63  36 CALM      29.98F HX  94
HENDERSON      SUNNY     93  63  36 SW3       29.98S HX  94
OWENSBORO      MOSUNNY   94  66  39 CALM      30.00S HX  97
HOPKINSVILLE   SUNNY     89  67  47 E6        29.99S HX  92
BOWLING GREEN  SUNNY     91  64  40 N5        30.00S HX  92
GLASGOW        SUNNY     92  60  33 E7        30.01R HX  92
$$

KYZ024-025-028>034-038-045-046-053-042300-
NORTH CENTRAL KENTUCKY

CITY           SKY/WX    TMP DP  RH WIND       PRES   REMARKS
LOUISVILLE/SDF MOSUNNY   93  63  36 SW8       29.99S HX  94
LOUISVILLE/LOU SUNNY     92  63  38 CALM      30.00S HX  93
FORT KNOX      MOSUNNY   91  64  41 W3        30.00S HX  92
$$

KYZ035>037-039>044-047>052-055>060-089>105-042300-
NORTHEAST KENTUCKY

CITY           SKY/WX    TMP DP  RH WIND       PRES   REMARKS
LEXINGTON      MOSUNNY   90  64  42 S6        30.03R HX  91
COVINGTON      PTSUNNY   91  66  43 VRB5      30.02R HX  93
FRANKFORT      SUNNY     91  64  40 VRB5      30.01S HX  92
$$

KYZ054-064>069-076>088-106>120-042300-
SOUTHEAST KENTUCKY

CITY           SKY/WX    TMP DP  RH WIND       PRES   REMARKS
JACKSON        MOSUNNY   83  64  52 CALM      30.05S
LONDON         SUNNY     90  60  36 CALM      30.04S
SOMERSET       SUNNY     88  61  40 CALM      30.04R
MIDDLESBORO    SUNNY     89  64  43 N3        30.03S HX  90
MONTICELLO     CLEAR     91  67  45 CALM      30.05S HX  94
$$




USA.gov is the U.S. government's official web portal to all federal, state and local government web resources and services.